sat.trackr.live / text

‹ back to catalog

STARLINK-36730

NORAD 67874 · 2026-034AA

PAYLOAD ACTIVE UNKNOWN

§ Identity

Operator
Country
US
Launch date
2026-02-20
Launch site
AFETR
Launch vehicle
Mass (kg)
RCS (m²)

Purposes: comms

External: N2YO · Heavens-Above · Gunter

§ Orbital elements

Epoch: 2026-09-19T19:43:26.709024Z

Period
93.85 min
Inclination
53.1584°
Eccentricity
0.0001224
Mean motion
15.34419511 rev/d
Perigee alt
461.8 km
Apogee alt
463.5 km
Semi-major
6,840.8 km
B*
6.0457e-4
RAAN
17.1606°
Arg perigee
81.8271°
Mean anomaly
278.2870°
Rev number
3,383

§ Raw data

STARLINK-367301 67874U 26034AA  26262.82183691  .00020118  00000+0  60457-3 0  99992 67874  53.1584  17.1606 0001224  81.8271 278.2870 15.34419511 33832

JSON: /api/v1/satellites/67874 · /tle

For live sub-satellite position, see the globe view (requires WebGL).

§ Visibility from observer

Set your observer location to see the next 7 days of passes ≥ 10°. The values pass through the URL so the page stays shareable.

No JS? Fill the form by hand. The geolocation button needs JavaScript.